Location: Équennes
(49.7375°N, 1.9622°E)
Time: 17:22:32
(UTC+00:00)

Cosmos 2278 - Pass Details

Date: 27 September 2023
Orbit: 838 x 853 km, 71.1° (Epoch: 08 December)

Event Time Altitude Azimuth Distance (km) Brightness Sun altitude
Rises 23:29:52 0° 332° (NNW) 3,425 7.6 -42.0°
Reaches altitude 10° 23:33:36 10° 357° (N) 2,489 6.8 -42.1°
Maximum altitude 23:36:39 14° 29° (NNE) 2,184 6.3 -42.1°
Enters shadow 23:37:10 14° 35° (NE) 2,193 6.2 -42.1°
